owner,sensor,date,latitude,longitude,vertical_datum,sea_water_temperature,qcFlag
Shell,ioos:station:wmo:42873:1,2023-08-01T00:06:00Z,26.0917,-94.9000,13.1,30.8,11111222
Shell,ioos:station:wmo:42873:1,2023-08-01T00:16:00Z,26.0917,-94.9000,13.1,30.9,11111222
Shell,ioos:station:wmo:42873:1,2023-08-01T00:26:00Z,26.0917,-94.9000,13.1,30.8,11111222
Shell,ioos:station:wmo:42873:1,2023-08-01T00:36:00Z,26.0917,-94.9000,13.1,30.8,11111222
Shell,ioos:station:wmo:42873:1,2023-08-01T00:46:00Z,26.0917,-94.9000,13.1,30.9,11111222
Shell,ioos:station:wmo:42873:1,2023-08-01T00:56:00Z,26.0917,-94.9000,13.1,30.8,11111222
Shell,ioos:station:wmo:42873:1,2023-08-01T01:07:00Z,26.0917,-94.9000,13.1,30.8,11111222
Shell,ioos:station:wmo:42873:1,2023-08-01T01:17:00Z,26.0917,-94.9000,13.1,30.8,11111222
Shell,ioos:station:wmo:42873:1,2023-08-01T01:27:00Z,26.0917,-94.9000,13.1,30.9,11111222
Shell,ioos:station:wmo:42873:1,2023-08-01T01:37:00Z,26.0917,-94.9000,13.1,30.8,11111222
Shell,ioos:station:wmo:42873:1,2023-08-01T01:47:00Z,26.0917,-94.9000,13.1,30.9,11111222
Shell,ioos:station:wmo:42873:1,2023-08-01T01:57:00Z,26.0917,-94.9000,13.1,31.4,11111222
Shell,ioos:station:wmo:42873:1,2023-08-01T02:07:00Z,26.0917,-94.9000,13.1,31.5,11111222
Shell,ioos:station:wmo:42873:1,2023-08-01T02:17:00Z,26.0917,-94.9000,13.1,31.6,11111222
Shell,ioos:station:wmo:42873:1,2023-08-01T02:27:00Z,26.0917,-94.9000,13.1,31.5,11111222
Shell,ioos:station:wmo:42873:1,2023-08-01T02:37:00Z,26.0917,-94.9000,13.1,31.3,11111222
Shell,ioos:station:wmo:42873:1,2023-08-01T02:47:00Z,26.0917,-94.9000,13.1,31.2,11111222
Shell,ioos:station:wmo:42873:1,2023-08-01T02:57:00Z,26.0917,-94.9000,13.1,31.2,11111222
Shell,ioos:station:wmo:42873:1,2023-08-01T03:07:00Z,26.0917,-94.9000,13.1,31.4,11111222
Shell,ioos:station:wmo:42873:1,2023-08-01T03:17:00Z,26.0917,-94.9000,13.1,31.4,11111222
Shell,ioos:station:wmo:42873:1,2023-08-01T03:27:00Z,26.0917,-94.9000,13.1,31.4,11111222
Shell,ioos:station:wmo:42873:1,2023-08-01T03:37:00Z,26.0917,-94.9000,13.1,31.2,11111222
Shell,ioos:station:wmo:42873:1,2023-08-01T03:47:00Z,26.0917,-94.9000,13.1,31.1,11111222
Shell,ioos:station:wmo:42873:1,2023-08-01T03:57:00Z,26.0917,-94.9000,13.1,31.1,11111222
Shell,ioos:station:wmo:42873:1,2023-08-01T04:07:00Z,26.0917,-94.9000,13.1,31.1,11111222
Shell,ioos:station:wmo:42873:1,2023-08-01T04:17:00Z,26.0917,-94.9000,13.0,30.8,11111222
Shell,ioos:station:wmo:42873:1,2023-08-01T04:27:00Z,26.0917,-94.9000,13.0,30.9,11111222
Shell,ioos:station:wmo:42873:1,2023-08-01T04:37:00Z,26.0917,-94.9000,13.0,31.1,11111222
Shell,ioos:station:wmo:42873:1,2023-08-01T04:47:00Z,26.0917,-94.9000,13.0,31.1,11111222
Shell,ioos:station:wmo:42873:1,2023-08-01T04:57:00Z,26.0917,-94.9000,12.9,31.0,11111222
Shell,ioos:station:wmo:42873:1,2023-08-01T05:07:00Z,26.0917,-94.9000,13.0,31.1,11111222
Shell,ioos:station:wmo:42873:1,2023-08-01T05:17:00Z,26.0917,-94.9000,13.0,31.2,11111222
Shell,ioos:station:wmo:42873:1,2023-08-01T05:27:00Z,26.0917,-94.9000,13.0,31.1,11111222
Shell,ioos:station:wmo:42873:1,2023-08-01T05:37:00Z,26.0917,-94.9000,13.0,31.1,11111222
Shell,ioos:station:wmo:42873:1,2023-08-01T05:47:00Z,26.0917,-94.9000,13.0,31.2,11111222
Shell,ioos:station:wmo:42873:1,2023-08-01T05:57:00Z,26.0917,-94.9000,13.1,31.2,11111222
Shell,ioos:station:wmo:42873:1,2023-08-01T06:07:00Z,26.0917,-94.9000,13.1,31.2,11111222
Shell,ioos:station:wmo:42873:1,2023-08-01T06:17:00Z,26.0917,-94.9000,13.1,31.2,11111222
Shell,ioos:station:wmo:42873:1,2023-08-01T06:27:00Z,26.0917,-94.9000,13.1,31.2,11111222
Shell,ioos:station:wmo:42873:1,2023-08-01T06:37:00Z,26.0917,-94.9000,13.1,31.2,11111222
Shell,ioos:station:wmo:42873:1,2023-08-01T06:47:00Z,26.0917,-94.9000,13.0,31.1,11111222
Shell,ioos:station:wmo:42873:1,2023-08-01T06:57:00Z,26.0917,-94.9000,13.0,31.0,11111222
Shell,ioos:station:wmo:42873:1,2023-08-01T07:07:00Z,26.0917,-94.9000,13.0,31.0,11111222
Shell,ioos:station:wmo:42873:1,2023-08-01T07:17:00Z,26.0917,-94.9000,13.1,31.2,11111222
Shell,ioos:station:wmo:42873:1,2023-08-01T07:27:00Z,26.0917,-94.9000,13.0,31.2,11111222
Shell,ioos:station:wmo:42873:1,2023-08-01T07:37:00Z,26.0917,-94.9000,13.1,31.1,11111222
Shell,ioos:station:wmo:42873:1,2023-08-01T07:47:00Z,26.0917,-94.9000,13.1,31.1,11111222
Shell,ioos:station:wmo:42873:1,2023-08-01T07:57:00Z,26.0917,-94.9000,13.0,31.2,11111222
Shell,ioos:station:wmo:42873:1,2023-08-01T08:07:00Z,26.0917,-94.9000,12.9,31.2,11111222
Shell,ioos:station:wmo:42873:1,2023-08-01T08:17:00Z,26.0917,-94.9000,12.8,31.2,11111222
Shell,ioos:station:wmo:42873:1,2023-08-01T08:28:00Z,26.0917,-94.9000,12.8,31.2,11111222
Shell,ioos:station:wmo:42873:1,2023-08-01T08:38:00Z,26.0917,-94.9000,12.9,31.2,11111222
Shell,ioos:station:wmo:42873:1,2023-08-01T08:48:00Z,26.0917,-94.9000,12.9,31.2,11111222
Shell,ioos:station:wmo:42873:1,2023-08-01T08:58:00Z,26.0917,-94.9000,12.9,31.2,11111222
Shell,ioos:station:wmo:42873:1,2023-08-01T09:08:00Z,26.0917,-94.9000,13.0,31.2,11111222
Shell,ioos:station:wmo:42873:1,2023-08-01T09:18:00Z,26.0917,-94.9000,13.0,31.2,11111222
Shell,ioos:station:wmo:42873:1,2023-08-01T09:28:00Z,26.0917,-94.9000,12.9,31.2,11111222
Shell,ioos:station:wmo:42873:1,2023-08-01T09:38:00Z,26.0917,-94.9000,12.9,31.2,11111222
Shell,ioos:station:wmo:42873:1,2023-08-01T09:48:00Z,26.0917,-94.9000,12.9,31.2,11111222
Shell,ioos:station:wmo:42873:1,2023-08-01T09:58:00Z,26.0917,-94.9000,12.9,31.2,11111222
Shell,ioos:station:wmo:42873:1,2023-08-01T10:08:00Z,26.0917,-94.9000,12.9,31.2,11111222
Shell,ioos:station:wmo:42873:1,2023-08-01T10:18:00Z,26.0917,-94.9000,12.9,31.3,11111222
Shell,ioos:station:wmo:42873:1,2023-08-01T10:28:00Z,26.0917,-94.9000,13.0,31.4,11111222
Shell,ioos:station:wmo:42873:1,2023-08-01T10:38:00Z,26.0917,-94.9000,13.0,31.4,11111222
Shell,ioos:station:wmo:42873:1,2023-08-01T10:48:00Z,26.0917,-94.9000,13.0,31.4,11111222
Shell,ioos:station:wmo:42873:1,2023-08-01T10:58:00Z,26.0917,-94.9000,12.9,31.4,11111222
Shell,ioos:station:wmo:42873:1,2023-08-01T11:08:00Z,26.0917,-94.9000,12.9,31.4,11111222
Shell,ioos:station:wmo:42873:1,2023-08-01T11:18:00Z,26.0917,-94.9000,12.9,31.5,11111222
Shell,ioos:station:wmo:42873:1,2023-08-01T11:28:00Z,26.0917,-94.9000,12.9,31.5,11111222
Shell,ioos:station:wmo:42873:1,2023-08-01T11:38:00Z,26.0917,-94.9000,13.0,30.8,11111222
Shell,ioos:station:wmo:42873:1,2023-08-01T11:48:00Z,26.0917,-94.9000,13.0,30.7,11111222
Shell,ioos:station:wmo:42873:1,2023-08-01T11:58:00Z,26.0917,-94.9000,12.9,30.6,11111222
Shell,ioos:station:wmo:42873:1,2023-08-01T12:08:00Z,26.0917,-94.9000,12.9,30.8,11111222
Shell,ioos:station:wmo:42873:1,2023-08-01T12:18:00Z,26.0917,-94.9000,12.9,30.9,11111222
Shell,ioos:station:wmo:42873:1,2023-08-01T12:28:00Z,26.0917,-94.9000,12.9,30.8,11111222
Shell,ioos:station:wmo:42873:1,2023-08-01T12:38:00Z,26.0917,-94.9000,12.9,30.8,11111222
Shell,ioos:station:wmo:42873:1,2023-08-01T12:48:00Z,26.0917,-94.9000,13.0,30.8,11111222
Shell,ioos:station:wmo:42873:1,2023-08-01T12:58:00Z,26.0917,-94.9000,13.0,30.8,11111222
Shell,ioos:station:wmo:42873:1,2023-08-01T13:08:00Z,26.0917,-94.9000,13.0,30.8,11111222
Shell,ioos:station:wmo:42873:1,2023-08-01T13:18:00Z,26.0917,-94.9000,13.0,31.1,11111222
Shell,ioos:station:wmo:42873:1,2023-08-01T13:28:00Z,26.0917,-94.9000,13.0,31.2,11111222
Shell,ioos:station:wmo:42873:1,2023-08-01T13:38:00Z,26.0917,-94.9000,13.1,31.4,11111222
Shell,ioos:station:wmo:42873:1,2023-08-01T13:48:00Z,26.0917,-94.9000,13.1,31.4,11111222
Shell,ioos:station:wmo:42873:1,2023-08-01T13:58:00Z,26.0917,-94.9000,13.1,31.4,11111222
Shell,ioos:station:wmo:42873:1,2023-08-01T14:08:00Z,26.0917,-94.9000,13.0,31.4,11111222
Shell,ioos:station:wmo:42873:1,2023-08-01T14:18:00Z,26.0917,-94.9000,13.0,31.4,11111222
Shell,ioos:station:wmo:42873:1,2023-08-01T14:38:00Z,26.2310,-94.7285,13.0,31.6,11111222
Shell,ioos:station:wmo:42873:1,2023-08-01T14:48:00Z,26.2310,-94.7285,13.0,31.6,11111222
Shell,ioos:station:wmo:42873:1,2023-08-01T14:58:00Z,26.2310,-94.7285,13.1,31.6,11111222
Shell,ioos:station:wmo:42873:1,2023-08-01T15:08:00Z,26.2310,-94.7285,13.0,31.6,11111222
Shell,ioos:station:wmo:42873:1,2023-08-01T15:18:00Z,26.2310,-94.7285,13.0,31.6,11111222
Shell,ioos:station:wmo:42873:1,2023-08-01T15:28:00Z,26.2310,-94.7285,13.0,31.6,11111222
Shell,ioos:station:wmo:42873:1,2023-08-01T15:38:00Z,26.2310,-94.7285,13.0,31.5,11111222
Shell,ioos:station:wmo:42873:1,2023-08-01T15:48:00Z,26.2310,-94.7285,13.0,31.5,11111222
Shell,ioos:station:wmo:42873:1,2023-08-01T15:58:00Z,26.2310,-94.7285,13.0,31.5,11111222
Shell,ioos:station:wmo:42873:1,2023-08-01T16:08:00Z,26.2310,-94.7285,13.0,31.5,11111222
Shell,ioos:station:wmo:42873:1,2023-08-01T16:18:00Z,26.2310,-94.7285,13.0,31.5,11111222
Shell,ioos:station:wmo:42873:1,2023-08-01T16:28:00Z,26.2310,-94.7285,13.0,31.4,11111222
Shell,ioos:station:wmo:42873:1,2023-08-01T16:38:00Z,26.2310,-94.7285,13.0,31.4,11111222
Shell,ioos:station:wmo:42873:1,2023-08-01T16:48:00Z,26.2310,-94.7285,13.0,31.5,11111222
Shell,ioos:station:wmo:42873:1,2023-08-01T16:58:00Z,26.2310,-94.7285,13.0,31.4,11111222
Shell,ioos:station:wmo:42873:1,2023-08-01T17:08:00Z,26.2310,-94.7285,13.0,31.4,11111222
Shell,ioos:station:wmo:42873:1,2023-08-01T17:18:00Z,26.2310,-94.7285,13.0,31.4,11111222
Shell,ioos:station:wmo:42873:1,2023-08-01T17:28:00Z,26.2310,-94.7285,13.0,31.4,11111222
Shell,ioos:station:wmo:42873:1,2023-08-01T17:38:00Z,26.2310,-94.7285,12.9,31.4,11111222
Shell,ioos:station:wmo:42873:1,2023-08-01T17:48:00Z,26.2310,-94.7285,12.9,31.4,11111222
Shell,ioos:station:wmo:42873:1,2023-08-01T17:58:00Z,26.2310,-94.7285,12.9,31.4,11111222
Shell,ioos:station:wmo:42873:1,2023-08-01T18:08:00Z,26.2310,-94.7285,12.9,31.5,11111222
Shell,ioos:station:wmo:42873:1,2023-08-01T18:18:00Z,26.2310,-94.7285,13.0,31.5,11111222
Shell,ioos:station:wmo:42873:1,2023-08-01T18:28:00Z,26.2310,-94.7285,13.0,31.4,11111222
Shell,ioos:station:wmo:42873:1,2023-08-01T18:38:00Z,26.2310,-94.7285,13.0,31.4,11111222
Shell,ioos:station:wmo:42873:1,2023-08-01T18:48:00Z,26.2310,-94.7285,13.1,31.4,11111222
Shell,ioos:station:wmo:42873:1,2023-08-01T18:58:00Z,26.2310,-94.7285,13.1,31.5,11111222
Shell,ioos:station:wmo:42873:1,2023-08-01T19:08:00Z,26.2310,-94.7285,13.1,31.5,11111222
Shell,ioos:station:wmo:42873:1,2023-08-01T19:18:00Z,26.2310,-94.7285,13.1,31.5,11111222
Shell,ioos:station:wmo:42873:1,2023-08-01T19:28:00Z,26.2310,-94.7285,13.1,31.5,11111222
Shell,ioos:station:wmo:42873:1,2023-08-01T19:38:00Z,26.2310,-94.7285,13.1,31.5,11111222
Shell,ioos:station:wmo:42873:1,2023-08-01T19:48:00Z,26.2310,-94.7285,13.1,31.5,11111222
Shell,ioos:station:wmo:42873:1,2023-08-01T19:58:00Z,26.2310,-94.7285,13.1,31.5,11111222
Shell,ioos:station:wmo:42873:1,2023-08-01T20:08:00Z,26.2310,-94.7285,13.1,31.6,11111222
Shell,ioos:station:wmo:42873:1,2023-08-01T20:18:00Z,26.2310,-94.7285,13.1,31.5,11111222
Shell,ioos:station:wmo:42873:1,2023-08-01T20:28:00Z,26.2310,-94.7285,13.0,31.5,11111222
Shell,ioos:station:wmo:42873:1,2023-08-01T20:38:00Z,26.2310,-94.7285,13.1,31.5,11111222
Shell,ioos:station:wmo:42873:1,2023-08-01T20:48:00Z,26.2310,-94.7285,13.0,31.4,11111222
Shell,ioos:station:wmo:42873:1,2023-08-01T20:59:00Z,26.2310,-94.7285,12.9,31.3,11111222
Shell,ioos:station:wmo:42873:1,2023-08-01T21:09:00Z,26.2310,-94.7285,12.9,31.3,11111222
Shell,ioos:station:wmo:42873:1,2023-08-01T21:19:00Z,26.2310,-94.7285,13.0,31.3,11111222
Shell,ioos:station:wmo:42873:1,2023-08-01T21:29:00Z,26.2310,-94.7285,13.0,31.1,11111222
Shell,ioos:station:wmo:42873:1,2023-08-01T21:39:00Z,26.2310,-94.7285,13.0,31.1,11111222
Shell,ioos:station:wmo:42873:1,2023-08-01T21:49:00Z,26.2310,-94.7285,13.0,31.4,11111222
Shell,ioos:station:wmo:42873:1,2023-08-01T21:59:00Z,26.2310,-94.7285,13.0,31.4,11111222
Shell,ioos:station:wmo:42873:1,2023-08-01T22:09:00Z,26.2310,-94.7285,12.9,31.5,11111222
Shell,ioos:station:wmo:42873:1,2023-08-01T22:19:00Z,26.2310,-94.7285,13.0,31.3,11111222
Shell,ioos:station:wmo:42873:1,2023-08-01T22:29:00Z,26.2310,-94.7285,13.0,31.3,11111222
Shell,ioos:station:wmo:42873:1,2023-08-01T22:39:00Z,26.2310,-94.7285,13.0,31.3,11111222
Shell,ioos:station:wmo:42873:1,2023-08-01T22:49:00Z,26.2310,-94.7285,13.0,31.2,11111222
Shell,ioos:station:wmo:42873:1,2023-08-01T22:59:00Z,26.2310,-94.7285,13.0,31.3,11111222
Shell,ioos:station:wmo:42873:1,2023-08-01T23:09:00Z,26.2310,-94.7285,13.0,31.2,11111222
Shell,ioos:station:wmo:42873:1,2023-08-01T23:19:00Z,26.2310,-94.7285,13.0,31.1,11111222
Shell,ioos:station:wmo:42873:1,2023-08-01T23:29:00Z,26.2310,-94.7285,13.0,31.2,11111222
Shell,ioos:station:wmo:42873:1,2023-08-01T23:39:00Z,26.2310,-94.7285,13.0,31.3,11111222
Shell,ioos:station:wmo:42873:1,2023-08-01T23:49:00Z,26.2310,-94.7285,13.0,31.4,11111222
Shell,ioos:station:wmo:42873:1,2023-08-01T23:59:00Z,26.2310,-94.7285,13.0,31.5,11111222
Shell,ioos:station:wmo:42873:1,2023-08-02T00:09:00Z,26.2310,-94.7285,13.0,31.5,11111222
Shell,ioos:station:wmo:42873:1,2023-08-02T00:19:00Z,26.2310,-94.7285,13.0,31.6,11111222
Shell,ioos:station:wmo:42873:1,2023-08-02T00:29:00Z,26.2310,-94.7285,13.0,31.5,11111222
Shell,ioos:station:wmo:42873:1,2023-08-02T00:39:00Z,26.2310,-94.7285,13.0,31.5,11111222
Shell,ioos:station:wmo:42873:1,2023-08-02T00:49:00Z,26.2310,-94.7285,13.0,31.5,11111222
Shell,ioos:station:wmo:42873:1,2023-08-02T00:59:00Z,26.2310,-94.7285,13.0,31.5,11111222
Shell,ioos:station:wmo:42873:1,2023-08-02T01:09:00Z,26.2310,-94.7285,13.0,31.6,11111222
Shell,ioos:station:wmo:42873:1,2023-08-02T01:19:00Z,26.2310,-94.7285,13.0,31.6,11111222
Shell,ioos:station:wmo:42873:1,2023-08-02T01:29:00Z,26.2310,-94.7285,13.0,31.6,11111222
Shell,ioos:station:wmo:42873:1,2023-08-02T01:39:00Z,26.2310,-94.7285,13.0,31.7,11111222
Shell,ioos:station:wmo:42873:1,2023-08-02T01:49:00Z,26.2310,-94.7285,13.0,31.6,11111222
Shell,ioos:station:wmo:42873:1,2023-08-02T01:59:00Z,26.2310,-94.7285,12.9,31.6,11111222
Shell,ioos:station:wmo:42873:1,2023-08-02T02:09:00Z,26.2310,-94.7285,12.9,31.6,11111222
Shell,ioos:station:wmo:42873:1,2023-08-02T02:19:00Z,26.2310,-94.7285,12.9,31.6,11111222
Shell,ioos:station:wmo:42873:1,2023-08-02T02:29:00Z,26.2310,-94.7285,13.0,31.6,11111222
Shell,ioos:station:wmo:42873:1,2023-08-02T02:39:00Z,26.2310,-94.7285,12.9,31.6,11111222
Shell,ioos:station:wmo:42873:1,2023-08-02T02:49:00Z,26.2310,-94.7285,12.9,31.6,11111222
Shell,ioos:station:wmo:42873:1,2023-08-02T02:59:00Z,26.2310,-94.7285,12.9,31.6,11111222
Shell,ioos:station:wmo:42873:1,2023-08-02T03:09:00Z,26.2310,-94.7285,12.9,31.7,11111222
Shell,ioos:station:wmo:42873:1,2023-08-02T03:19:00Z,26.2310,-94.7285,12.9,31.7,11111222
Shell,ioos:station:wmo:42873:1,2023-08-02T03:29:00Z,26.2310,-94.7285,13.0,31.7,11111222
Shell,ioos:station:wmo:42873:1,2023-08-02T03:39:00Z,26.2310,-94.7285,12.9,31.7,11111222
Shell,ioos:station:wmo:42873:1,2023-08-02T03:49:00Z,26.2310,-94.7285,13.0,31.7,11111222
Shell,ioos:station:wmo:42873:1,2023-08-02T03:59:00Z,26.2310,-94.7285,13.0,31.7,11111222
Shell,ioos:station:wmo:42873:1,2023-08-02T04:09:00Z,26.2310,-94.7285,13.0,31.7,11111222
Shell,ioos:station:wmo:42873:1,2023-08-02T04:20:00Z,26.2310,-94.7285,13.0,31.7,11111222
Shell,ioos:station:wmo:42873:1,2023-08-02T04:30:00Z,26.2310,-94.7285,13.0,31.7,11111222
Shell,ioos:station:wmo:42873:1,2023-08-02T04:40:00Z,26.2310,-94.7285,13.0,31.7,11111222
Shell,ioos:station:wmo:42873:1,2023-08-02T04:50:00Z,26.2310,-94.7285,13.0,31.7,11111222
Shell,ioos:station:wmo:42873:1,2023-08-02T05:00:00Z,26.2310,-94.7285,13.0,31.7,11111222
Shell,ioos:station:wmo:42873:1,2023-08-02T05:10:00Z,26.2310,-94.7285,13.0,31.7,11111222
Shell,ioos:station:wmo:42873:1,2023-08-02T05:20:00Z,26.2310,-94.7285,13.0,31.7,11111222
Shell,ioos:station:wmo:42873:1,2023-08-02T05:30:00Z,26.2310,-94.7285,13.0,31.7,11111222
Shell,ioos:station:wmo:42873:1,2023-08-02T05:40:00Z,26.2310,-94.7285,13.0,31.7,11111222
Shell,ioos:station:wmo:42873:1,2023-08-02T05:50:00Z,26.2310,-94.7285,13.0,31.6,11111222
Shell,ioos:station:wmo:42873:1,2023-08-02T06:00:00Z,26.2310,-94.7285,13.0,31.6,11111222
Shell,ioos:station:wmo:42873:1,2023-08-02T06:10:00Z,26.2310,-94.7285,13.0,31.6,11111222
Shell,ioos:station:wmo:42873:1,2023-08-02T06:20:00Z,26.2310,-94.7285,13.0,31.6,11111222
Shell,ioos:station:wmo:42873:1,2023-08-02T06:30:00Z,26.2310,-94.7285,13.0,31.6,11111222
Shell,ioos:station:wmo:42873:1,2023-08-02T06:40:00Z,26.2310,-94.7285,13.0,31.5,11111222
Shell,ioos:station:wmo:42873:1,2023-08-02T07:00:00Z,26.2310,-94.7285,13.0,31.5,11111222
Shell,ioos:station:wmo:42873:1,2023-08-02T07:10:00Z,26.2310,-94.7285,13.0,31.4,11111222
Shell,ioos:station:wmo:42873:1,2023-08-02T07:20:00Z,26.2310,-94.7285,13.0,31.4,11111222
Shell,ioos:station:wmo:42873:1,2023-08-02T07:30:00Z,26.2310,-94.7285,13.0,31.5,11111222
Shell,ioos:station:wmo:42873:1,2023-08-02T07:40:00Z,26.2310,-94.7285,13.0,31.5,11111222
Shell,ioos:station:wmo:42873:1,2023-08-02T07:50:00Z,26.2310,-94.7285,13.0,31.6,11111222
Shell,ioos:station:wmo:42873:1,2023-08-02T08:00:00Z,26.2310,-94.7285,13.0,31.5,11111222
Shell,ioos:station:wmo:42873:1,2023-08-02T08:10:00Z,26.2310,-94.7285,13.0,31.6,11111222
Shell,ioos:station:wmo:42873:1,2023-08-02T08:20:00Z,26.2310,-94.7285,13.0,31.6,11111222
Shell,ioos:station:wmo:42873:1,2023-08-02T08:30:00Z,26.2310,-94.7285,13.0,31.6,11111222
Shell,ioos:station:wmo:42873:1,2023-08-02T08:40:00Z,26.2310,-94.7285,12.9,31.6,11111222
Shell,ioos:station:wmo:42873:1,2023-08-02T08:50:00Z,26.2310,-94.7285,12.9,31.6,11111222
Shell,ioos:station:wmo:42873:1,2023-08-02T09:00:00Z,26.2310,-94.7285,12.9,31.6,11111222
Shell,ioos:station:wmo:42873:1,2023-08-02T09:10:00Z,26.2310,-94.7285,12.9,31.5,11111222
Shell,ioos:station:wmo:42873:1,2023-08-02T09:20:00Z,26.2310,-94.7285,12.9,31.5,11111222
Shell,ioos:station:wmo:42873:1,2023-08-02T09:30:00Z,26.2310,-94.7285,12.9,31.6,11111222
Shell,ioos:station:wmo:42873:1,2023-08-02T09:40:00Z,26.2310,-94.7285,12.9,31.5,11111222
Shell,ioos:station:wmo:42873:1,2023-08-02T09:50:00Z,26.2310,-94.7285,12.9,31.6,11111222
Shell,ioos:station:wmo:42873:1,2023-08-02T10:00:00Z,26.2310,-94.7285,12.9,31.6,11111222
Shell,ioos:station:wmo:42873:1,2023-08-02T10:10:00Z,26.2310,-94.7285,12.9,31.5,11111222
Shell,ioos:station:wmo:42873:1,2023-08-02T10:20:00Z,26.2310,-94.7285,12.9,31.5,11111222
Shell,ioos:station:wmo:42873:1,2023-08-02T10:30:00Z,26.2310,-94.7285,12.9,31.7,11111222
Shell,ioos:station:wmo:42873:1,2023-08-02T10:40:00Z,26.2310,-94.7285,12.9,31.7,11111222
Shell,ioos:station:wmo:42873:1,2023-08-02T10:50:00Z,26.2310,-94.7285,12.9,31.7,11111222
Shell,ioos:station:wmo:42873:1,2023-08-02T11:00:00Z,26.2310,-94.7285,12.9,31.7,11111222
Shell,ioos:station:wmo:42873:1,2023-08-02T11:10:00Z,26.2310,-94.7285,12.9,31.6,11111222
Shell,ioos:station:wmo:42873:1,2023-08-02T11:20:00Z,26.2310,-94.7285,12.9,31.6,11111222
Shell,ioos:station:wmo:42873:1,2023-08-02T11:30:00Z,26.2310,-94.7285,12.9,31.6,11111222
Shell,ioos:station:wmo:42873:1,2023-08-02T11:41:00Z,26.2310,-94.7285,12.9,31.6,11111222
Shell,ioos:station:wmo:42873:1,2023-08-02T11:51:00Z,26.2310,-94.7285,12.9,31.6,11111222
Shell,ioos:station:wmo:42873:1,2023-08-02T12:01:00Z,26.2310,-94.7285,12.9,31.3,11111222
Shell,ioos:station:wmo:42873:1,2023-08-02T12:11:00Z,26.2310,-94.7285,12.9,31.2,11111222
Shell,ioos:station:wmo:42873:1,2023-08-02T12:21:00Z,26.2310,-94.7285,12.9,31.3,11111222
Shell,ioos:station:wmo:42873:1,2023-08-02T12:31:00Z,26.2310,-94.7285,12.9,31.4,11111222
Shell,ioos:station:wmo:42873:1,2023-08-02T12:41:00Z,26.2310,-94.7285,12.9,31.4,11111222
Shell,ioos:station:wmo:42873:1,2023-08-02T12:51:00Z,26.2310,-94.7285,12.9,31.4,11111222
Shell,ioos:station:wmo:42873:1,2023-08-02T13:01:00Z,26.2310,-94.7285,12.9,31.5,11111222
Shell,ioos:station:wmo:42873:1,2023-08-02T13:11:00Z,26.2310,-94.7285,12.9,31.3,11111222
Shell,ioos:station:wmo:42873:1,2023-08-02T13:21:00Z,26.2310,-94.7285,12.9,31.2,11111222
Shell,ioos:station:wmo:42873:1,2023-08-02T13:31:00Z,26.2310,-94.7285,13.0,31.3,11111222
Shell,ioos:station:wmo:42873:1,2023-08-02T13:41:00Z,26.2310,-94.7285,13.0,31.4,11111222
Shell,ioos:station:wmo:42873:1,2023-08-02T13:51:00Z,26.2310,-94.7285,13.0,31.4,11111222
Shell,ioos:station:wmo:42873:1,2023-08-02T14:01:00Z,26.2310,-94.7285,13.0,31.3,11111222
Shell,ioos:station:wmo:42873:1,2023-08-02T14:11:00Z,26.2310,-94.7285,13.0,31.3,11111222
Shell,ioos:station:wmo:42873:1,2023-08-02T14:21:00Z,26.2310,-94.7285,13.0,31.3,11111222
Shell,ioos:station:wmo:42873:1,2023-08-02T14:31:00Z,26.2310,-94.7285,13.0,31.4,11111222
Shell,ioos:station:wmo:42873:1,2023-08-02T14:41:00Z,26.2310,-94.7285,13.0,31.4,11111222
Shell,ioos:station:wmo:42873:1,2023-08-02T14:51:00Z,26.2310,-94.7285,13.0,31.3,11111222
Shell,ioos:station:wmo:42873:1,2023-08-02T15:01:00Z,26.2310,-94.7285,13.0,31.2,11111222
Shell,ioos:station:wmo:42873:1,2023-08-02T15:11:00Z,26.2310,-94.7285,13.0,31.1,11111222
Shell,ioos:station:wmo:42873:1,2023-08-02T15:21:00Z,26.2310,-94.7285,13.0,31.1,11111222
Shell,ioos:station:wmo:42873:1,2023-08-02T15:31:00Z,26.2310,-94.7285,13.0,31.1,11111222
Shell,ioos:station:wmo:42873:1,2023-08-02T15:41:00Z,26.2310,-94.7285,12.9,31.2,11111222
Shell,ioos:station:wmo:42873:1,2023-08-02T15:51:00Z,26.2310,-94.7285,12.9,31.3,11111222
Shell,ioos:station:wmo:42873:1,2023-08-02T16:01:00Z,26.2310,-94.7285,12.9,31.3,11111222
Shell,ioos:station:wmo:42873:1,2023-08-02T16:11:00Z,26.2310,-94.7285,12.9,31.4,11111222
Shell,ioos:station:wmo:42873:1,2023-08-02T16:21:00Z,26.2310,-94.7285,13.0,31.4,11111222
Shell,ioos:station:wmo:42873:1,2023-08-02T16:31:00Z,26.2310,-94.7285,13.0,31.4,11111222
Shell,ioos:station:wmo:42873:1,2023-08-02T16:41:00Z,26.2310,-94.7285,13.0,31.4,11111222
Shell,ioos:station:wmo:42873:1,2023-08-02T16:51:00Z,26.2310,-94.7285,13.0,31.5,11111222
Shell,ioos:station:wmo:42873:1,2023-08-02T17:01:00Z,26.2310,-94.7285,13.0,31.5,11111222
Shell,ioos:station:wmo:42873:1,2023-08-02T17:11:00Z,26.2310,-94.7285,13.0,31.5,11111222
Shell,ioos:station:wmo:42873:1,2023-08-02T17:21:00Z,26.2310,-94.7285,13.0,31.4,11111222
Shell,ioos:station:wmo:42873:1,2023-08-02T17:31:00Z,26.2310,-94.7285,13.0,31.5,11111222
Shell,ioos:station:wmo:42873:1,2023-08-02T17:41:00Z,26.2310,-94.7285,13.0,31.5,11111222
Shell,ioos:station:wmo:42873:1,2023-08-02T17:51:00Z,26.2310,-94.7285,13.0,31.3,11111222
Shell,ioos:station:wmo:42873:1,2023-08-02T18:01:00Z,26.2310,-94.7285,13.0,31.3,11111222
Shell,ioos:station:wmo:42873:1,2023-08-02T18:11:00Z,26.2310,-94.7285,13.0,31.4,11111222
Shell,ioos:station:wmo:42873:1,2023-08-02T18:21:00Z,26.2310,-94.7285,13.0,31.5,11111222
Shell,ioos:station:wmo:42873:1,2023-08-02T18:31:00Z,26.2310,-94.7285,13.0,31.4,11111222
Shell,ioos:station:wmo:42873:1,2023-08-02T18:41:00Z,26.2310,-94.7285,13.0,31.4,11111222
Shell,ioos:station:wmo:42873:1,2023-08-02T18:51:00Z,26.2310,-94.7285,12.9,31.3,11111222
Shell,ioos:station:wmo:42873:1,2023-08-02T19:02:00Z,26.2310,-94.7285,12.9,31.3,11111222
Shell,ioos:station:wmo:42873:1,2023-08-02T19:12:00Z,26.2310,-94.7285,12.9,31.2,11111222
Shell,ioos:station:wmo:42873:1,2023-08-02T19:22:00Z,26.2310,-94.7285,13.0,31.3,11111222
Shell,ioos:station:wmo:42873:1,2023-08-02T19:32:00Z,26.2310,-94.7285,13.0,31.4,11111222
Shell,ioos:station:wmo:42873:1,2023-08-02T19:42:00Z,26.2310,-94.7285,12.9,31.5,11111222
Shell,ioos:station:wmo:42873:1,2023-08-02T19:52:00Z,26.2310,-94.7285,12.9,31.6,11111222
Shell,ioos:station:wmo:42873:1,2023-08-02T20:02:00Z,26.2310,-94.7285,12.9,31.6,11111222
Shell,ioos:station:wmo:42873:1,2023-08-02T20:12:00Z,26.2310,-94.7285,12.9,31.6,11111222
Shell,ioos:station:wmo:42873:1,2023-08-02T20:22:00Z,26.2310,-94.7285,12.9,31.6,11111222
Shell,ioos:station:wmo:42873:1,2023-08-02T20:32:00Z,26.2310,-94.7285,12.9,31.6,11111222
Shell,ioos:station:wmo:42873:1,2023-08-02T20:42:00Z,26.2310,-94.7285,12.9,31.6,11111222
Shell,ioos:station:wmo:42873:1,2023-08-02T20:52:00Z,26.2310,-94.7285,12.9,31.6,11111222
Shell,ioos:station:wmo:42873:1,2023-08-02T21:02:00Z,26.2310,-94.7285,12.9,31.6,11111222